DW3015 Weather Reports


time (UTC)temp
C
wind
direction
speed
KPH
gust
KPH
rain 1hr
cm
rain 24hr
cm
rain mn
cm
humidity
%
barometer
mb
20260906171519 35 118 0.0 0.0 0.00 0.00 0.00 53 1012.6
20260906170018 35 132 0.0 0.0 0.00 0.00 0.00 53 1012.8
20260906164516 35 156 0.0 0.0 0.00 0.00 0.00 57 1013.0
20260906163020 35 144 0.0 0.0 0.00 0.00 0.00 57 1013.2
20260906161510 33 188 0.0 0.0 0.00 0.00 0.00 58 1013.2
20260906160024 33 161 0.0 0.0 0.00 0.00 0.00 60 1013.3
20260906154506 33 205 0.0 0.0 0.00 0.00 0.00 61 1013.3
20260906153002 32 132 0.0 0.0 0.00 0.00 0.00 65 1013.1
20260906151605 31 119 0.0 0.0 0.00 0.00 0.00 69 1013.0
20260906150056 31 134 0.0 0.0 0.00 0.00 0.00 69 1013.0
20260906144554 30 122 0.0 0.0 0.00 0.00 0.00 70 1013.1
20260906143107 30 125 0.0 0.0 0.00 0.00 0.00 76 1013.2
20260906141544 28 96 0.0 0.0 0.00 0.00 0.00 80 1013.4
20260906140045 26 92 0.0 0.0 0.00 0.00 0.00 83 1013.5
20260906134539 25 83 0.0 0.0 0.00 0.00 0.00 77 1013.6
20260906133033 23 140 0.0 0.0 0.00 0.00 0.00 75 1013.5
20260906131532 23 140 0.0 0.0 0.00 0.00 0.00 74 1013.4
20260906130041 23 140 0.0 0.0 0.00 0.00 0.00 74 1013.2
20260906124528 22 140 0.0 0.0 0.00 0.00 0.00 74 1012.8
20260906123033 22 0.0 0.0 0.00 0.00 0.00 73 1012.7
20260906121525 22 0.0 0.0 0.00 0.00 0.00 74 1012.6
20260906120023 22 0.0 0.0 0.00 0.00 0.00 77 1012.4
20260906114521 22 0.0 0.0 0.00 0.00 0.00 74 1012.3
20260906113036 22 0.0 0.0 0.00 0.00 0.00 76 1012.1
20260906111522 22 0.0 0.0 0.00 0.00 0.00 76 1012.1
20260906110018 22 0.0 0.0 0.00 0.00 0.00 77 1012.0
20260906104515 22 0.0 0.0 0.00 0.00 0.00 78 1011.9
20260906103014 22 0.0 0.0 0.00 0.00 0.00 79 1011.9
20260906101514 22 0.0 0.0 0.00 0.00 0.00 78 1011.9
20260906100012 22 0.0 0.0 0.00 0.00 0.00 79 1011.9
20260906094518 22 0.0 0.0 0.00 0.00 0.00 79 1011.9
20260906093011 22 0.0 0.0 0.00 0.00 0.00 80 1011.8
20260906091522 22 140 0.0 0.0 0.00 0.00 0.00 81 1011.7
20260906090006 22 139 0.0 0.0 0.00 0.00 0.00 80 1011.5
20260906084515 23 140 0.0 0.0 0.00 0.00 0.00 80 1011.5
20260906083104 23 139 0.0 0.0 0.00 0.00 0.00 78 1011.3
20260906081511 23 140 0.0 0.0 0.00 0.00 0.00 80 1011.1
20260906080002 23 140 0.0 0.0 0.00 0.00 0.00 81 1011.0
20260906074501 23 140 0.0 0.0 0.00 0.00 0.00 81 1011.1
20260906073100 23 139 0.0 0.0 0.00 0.00 0.00 82 1011.1
20260906071608 23 139 0.0 0.0 0.00 0.00 0.00 81 1011.2
20260906070057 23 140 0.0 0.0 0.00 0.00 0.00 81 1011.2
20260906064555 23 140 0.0 0.0 0.00 0.00 0.00 83 1011.4
20260906063053 23 139 0.0 0.0 0.00 0.00 0.00 82 1011.6
20260906061553 23 140 0.0 0.0 0.00 0.00 0.00 82 1011.7
20260906060052 23 139 0.0 0.0 0.00 0.00 0.00 82 1011.7
20260906054555 23 140 0.0 0.0 0.00 0.00 0.00 82 1011.7
20260906053050 23 140 0.0 0.0 0.00 0.00 0.00 83 1011.7
20260906051553 23 140 0.0 0.0 0.00 0.00 0.00 83 1011.7
20260906050110 24 139 0.0 0.0 0.00 0.00 0.00 83 1011.7
20260906044552 24 139 0.0 0.0 0.00 0.00 0.00 83 1011.6
20260906043055 24 139 0.0 0.0 0.00 0.00 0.00 82 1011.5
20260906041544 24 139 0.0 0.0 0.00 0.00 0.00 81 1011.4
20260906040047 24 139 0.0 0.0 0.00 0.00 0.00 83 1011.3
20260906034545 24 139 0.0 0.0 0.00 0.00 0.00 83 1011.0
20260906033045 25 139 0.0 0.0 0.00 0.00 0.00 83 1010.8
20260906031545 25 139 0.0 0.0 0.00 0.00 0.00 83 1010.6
20260906030043 25 140 0.0 0.0 0.00 0.00 0.00 83 1010.6
20260906024541 26 140 0.0 0.0 0.00 0.00 0.00 83 1010.4
20260906023041 26 140 0.0 0.0 0.00 0.00 0.00 82 1010.2
20260906021550 26 140 0.0 0.0 0.00 0.00 0.00 81 1010.1
20260906020041 27 140 0.0 0.0 0.00 0.00 0.00 79 1010.0
20260906014540 27 140 0.0 0.0 0.00 0.00 0.00 79 1009.7
20260906013040 28 140 0.0 0.0 0.00 0.00 0.00 78 1009.6
20260906011539 28 140 0.0 0.0 0.00 0.00 0.00 77 1009.5
20260906010042 29 140 0.0 0.0 0.00 0.00 0.00 75 1009.5
20260906004542 30 140 0.0 0.0 0.00 0.00 0.00 73 1009.5
20260906003038 30 140 0.0 0.0 0.00 0.00 0.00 67 1009.6
20260906001537 31 140 0.0 0.0 0.00 0.00 0.00 65 1009.6
20260906000037 32 140 0.0 0.0 0.00 0.00 0.00 61 1009.5
20260905234540 32 140 0.0 0.0 0.00 0.00 0.00 55 1009.5
20260905233037 33 140 0.0 0.0 0.00 0.00 0.00 57 1009.5
20260905231537 34 140 0.0 0.0 0.00 0.00 0.00 57 1009.4
20260905230035 35 140 0.0 0.0 0.00 0.00 0.00 51 1009.3
20260905224540 36 140 0.0 0.0 0.00 0.00 0.00 46 1009.2
20260905223039 36 140 0.0 0.0 0.00 0.00 0.00 43 1009.2
20260905221534 36 115 0.0 0.0 0.00 0.00 0.00 44 1009.2
20260905220033 37 144 0.0 0.0 0.00 0.00 0.00 43 1009.2
20260905214533 37 143 0.0 0.0 0.00 0.00 0.00 44 1009.2
20260905213030 37 154 0.0 0.0 0.00 0.00 0.00 45 1009.6
20260905211527 37 163 0.0 0.0 0.00 0.00 0.00 43 1009.8
20260905210031 36 140 0.0 0.0 0.00 0.00 0.00 48 1010.1
20260905204524 37 163 0.0 0.0 0.00 0.00 0.00 45 1010.3
20260905203024 37 261 0.0 0.0 0.00 0.00 0.00 45 1010.5
20260905201533 37 211 0.0 0.0 0.00 0.00 0.00 43 1010.7
20260905200030 37 219 0.0 0.0 0.00 0.00 0.00 43 1010.7
20260905194522 37 236 0.0 0.0 0.00 0.00 0.00 42 1010.8
20260905193027 37 217 0.0 0.0 0.00 0.00 0.00 42 1010.9
20260905191519 36 243 0.0 0.0 0.00 0.00 0.00 44 1011.1
20260905190019 35 338 0.0 0.0 0.00 0.00 0.00 50 1011.4
20260905184523 35 144 0.0 0.0 0.00 0.00 0.00 50 1011.6
20260905183025 36 209 0.0 0.0 0.00 0.00 0.00 43 1011.7
20260905181517 36 167 0.0 0.0 0.00 0.00 0.00 44 1011.6
20260905180016 37 152 0.0 0.0 0.00 0.00 0.00 46 1011.7
20260905174527 36 184 0.0 0.0 0.00 0.00 0.00 50 1011.9
20260905173009 35 155 0.0 0.0 0.00 0.00 0.00 54 1012.2